Regional Weather Roundup
Issued by NWS

Home | Current Version | Previous Version | Graphics & Text | Print | Product List | Glossary On
Versions: 1 2 3 4 5 6 7 8 9 10 11 12 13 14 15 16 17 18 19 20 21 22 23 24 25 26 27 28 29 30 31 32 33 34 35 36 37 38 39 40 41 42 43 44 45 46 47 48 49 50
000
ASUS45 KABQ 270710
RWRNM
WEATHER ROUNDUP FOR NEW MEXICO
NATIONAL WEATHER SERVICE ALBUQUERQUE NM
1200 AM MST TUE JAN 27 2015

NOTE: "FAIR" MEANS FEW OR NO CLOUDS BELOW 12,000 FEET AGL WITH NO
       SIGNIFICANT WEATHER OR OBSTRUCTIONS TO VISION.

      THIS PRODUCT IS RELEASED AS TWO VERSIONS.  ONE VERSION NEAR
      THE TOP OF THE HOUR CONTAINING PRELIMINARY DATA FROM ALBUQUERQUE
      AND OTHER STATIONS.  A FINAL VERSION WITH ADDITIONAL DATA IS
      ISSUED ABOUT 10 MINUTES AFTER THE HOUR.

NMZ501-503-504-510>518-270800-
NORTHWEST PLATEAU/NORTHCENTRAL MOUNTAINS

CITY           SKY/WX    TMP DP  RH WIND       PRES   REMARKS
FARMINGTON     CLEAR     37  25  61 E12       30.32F WCI  29
LOS ALAMOS     PTCLDY    43  25  50 CALM      30.41S
SANTA FE       NOT AVBL
TAOS           CLEAR     28  21  74 N7        30.42S WCI  21
ANGEL FIRE     FAIR      21  19  93 CALM      30.47S

$$
NMZ402-403-502-505>509-270800-
WESTCENTRAL MOUNTAINS/SOUTHWEST MOUNTAINS

CITY           SKY/WX    TMP DP  RH WIND       PRES   REMARKS
GALLUP         MOCLDY    28  24  85 CALM      30.34F
GRANTS         PTCLDY    35  26  67 SE3       30.37F
SILVER CITY    MOCLDY    45  30  57 N6        30.35S

$$
NMZ407-409-411-412-270800-
SOUTHERN DESERTS

CITY           SKY/WX    TMP DP  RH WIND       PRES   REMARKS
LORDSBURG      CLOUDY    46  32  57 SE9       30.30R
DEMING         CLOUDY    47  33  58 CALM      30.31S
LAS CRUCES     CLOUDY    43  36  75 CALM      30.32S
HOLLOMAN AFB   PTCLDY    38  30  74 NE2       30.29R
ALAMOGORDO     PTCLDY    39  28  65 CALM      30.31R
T OR C         MOCLDY    46  27  47 N5        30.30F

$$
NMZ519>523-270800-
CENTRAL VALLEYS/CENTRAL HIGHLANDS

CITY           SKY/WX    TMP DP  RH WIND       PRES   REMARKS
ALBUQUERQUE    PTCLDY    39  27  62 CALM      30.35R
DOUBLE EAGLE   MOCLDY    33  25  71 NW5       30.37R WCI  29
MORIARTY ARPT  FAIR      27  25  90 N5        30.38S WCI  22
CLINES CORNERS MOCLDY    41  21  44 W3        30.36F
BELEN          FAIR      33  27  80 CALM      30.34F
SOCORRO        FAIR      34  28  79 CALM      30.34S

$$
NMZ524>526-539-540-270800-
SOUTHCENTRAL MOUNTAINS

CITY           SKY/WX    TMP DP  RH WIND       PRES   REMARKS
RUIDOSO        CLEAR     39  19  45 W5        30.38F

$$
NMZ527>531-270800-
NORTHEAST HIGHLANDS/NORTHEAST PLAINS

CITY           SKY/WX    TMP DP  RH WIND       PRES   REMARKS
LAS VEGAS      PTCLDY    40  23  50 N5        30.37F
RATON          CLEAR     30  25  81 NE8       30.34S WCI  22
CLAYTON        CLEAR     43  29  57 W9        30.26F

$$
NMZ532>537-270800-
EASTCENTRAL PLAINS

CITY           SKY/WX    TMP DP  RH WIND       PRES   REMARKS
TUCUMCARI      PTCLDY    39  32  76 W5        30.27S
CANNON AFB     CLEAR     41  30  66 N12       30.28S
CLOVIS AIRPORT CLEAR     39  30  70 NW10      30.27S WCI  32

$$
NMZ028-029-538-270800-
SOUTHEAST PLAINS

CITY           SKY/WX    TMP DP  RH WIND       PRES   REMARKS
ROSWELL        PTCLDY    35  30  82 CALM      30.27S
ARTESIA        PTCLDY    36  36 100 CALM      30.28S
CARLSBAD       PTCLDY    39  32  76 CALM      30.26R
HOBBS          PTCLDY    41  32  70 NW8       30.26F


$$


USA.gov is the U.S. government's official web portal to all federal, state and local government web resources and services.